DEPMP EDGS-EDGS

Flight info

Callsign DEPMP
Flight time 0h 43m
Altitude 7000
Route GMH PODIP SIL
Aircraft C172/L-S/L

Departure

Time 2026-04-28 18:26
Airport Siegerland Airport (EDGS)

Arrival

Time 2026-04-28 19:09
Airport Siegerland Airport (EDGS)
Time Latitude Longitude Altitude Speed Heading
2026-04-28 17:27 50.70786 8.07675 1979 ft 0 kts 218°
2026-04-28 18:22 50.70780 8.07687 1980 ft 5 kts 60°
2026-04-28 18:22 50.70814 8.07745 1974 ft 11 kts 82°
2026-04-28 18:22 50.70819 8.07860 1973 ft 11 kts 52°
2026-04-28 18:22 50.70841 8.07888 1969 ft 0 kts 38°
2026-04-28 18:23 50.70849 8.07898 1968 ft 7 kts 38°
2026-04-28 18:24 50.70898 8.07986 1964 ft 7 kts 61°
2026-04-28 18:24 50.70898 8.08029 1963 ft 5 kts 118°
2026-04-28 18:24 50.70796 8.08229 1950 ft 49 kts 127°
2026-04-28 18:24 50.70518 8.08750 2056 ft 62 kts 117°
2026-04-28 18:25 50.70245 8.09258 2215 ft 68 kts 131°
2026-04-28 18:25 50.69678 8.09296 2291 ft 93 kts 192°
2026-04-28 18:25 50.69113 8.08793 2456 ft 104 kts 234°
2026-04-28 18:26 50.69137 8.06610 2764 ft 106 kts 307°
2026-04-28 18:26 50.69507 8.05588 2963 ft 107 kts 309°
2026-04-28 18:26 50.69900 8.04542 3040 ft 115 kts 314°
2026-04-28 18:26 50.70401 8.03623 3132 ft 106 kts 346°
2026-04-28 18:27 50.71069 8.03482 3255 ft 87 kts 17°
2026-04-28 18:27 50.71678 8.03505 3382 ft 91 kts
2026-04-28 18:27 50.72333 8.03460 3469 ft 94 kts
2026-04-28 18:27 50.72954 8.03320 3594 ft 93 kts 352°
2026-04-28 18:28 50.73586 8.02875 3529 ft 103 kts 349°
2026-04-28 18:28 50.74205 8.02357 3697 ft 100 kts 348°
2026-04-28 18:28 50.74833 8.01907 3914 ft 97 kts 349°
2026-04-28 18:28 50.75456 8.01456 4036 ft 99 kts 353°
2026-04-28 18:29 50.76107 8.01172 4237 ft 95 kts 358°
2026-04-28 18:29 50.76747 8.00909 4389 ft 96 kts 358°
2026-04-28 18:29 50.77398 8.00605 4418 ft 97 kts 354°
2026-04-28 18:29 50.78017 8.00151 4440 ft 101 kts 343°
2026-04-28 18:30 50.78645 7.99790 4414 ft 96 kts 356°
2026-04-28 18:30 50.79069 7.99560 4413 ft 95 kts
2026-04-28 18:30 50.79943 7.99456 4434 ft 97 kts
2026-04-28 18:30 50.80616 7.99305 4467 ft 99 kts
2026-04-28 18:31 50.81310 7.99130 4459 ft 103 kts
2026-04-28 18:31 50.82032 7.98946 4413 ft 107 kts
2026-04-28 18:31 50.82771 7.98741 4470 ft 109 kts
2026-04-28 18:31 50.83517 7.98538 4517 ft 109 kts
2026-04-28 18:32 50.84264 7.98331 4560 ft 109 kts
2026-04-28 18:32 50.85006 7.98124 4615 ft 108 kts
2026-04-28 18:32 50.85741 7.97923 4633 ft 108 kts
2026-04-28 18:32 50.86487 7.97717 4662 ft 109 kts
2026-04-28 18:33 50.87228 7.97512 4710 ft 110 kts
2026-04-28 18:33 50.87979 7.97305 4745 ft 110 kts
2026-04-28 18:33 50.88732 7.97096 4766 ft 110 kts
2026-04-28 18:33 50.89484 7.96890 4806 ft 110 kts
2026-04-28 18:34 50.90225 7.96683 4808 ft 106 kts
2026-04-28 18:34 50.90947 7.96482 4838 ft 104 kts
2026-04-28 18:34 50.91657 7.96287 4838 ft 103 kts
2026-04-28 18:34 50.92354 7.96091 4843 ft 101 kts
2026-04-28 18:35 50.93043 7.95902 4833 ft 100 kts
2026-04-28 18:35 50.93726 7.95714 4801 ft 100 kts
2026-04-28 18:35 50.94407 7.95526 4778 ft 99 kts
2026-04-28 18:35 50.95087 7.95337 4751 ft 99 kts
2026-04-28 18:36 50.95768 7.95148 4743 ft 99 kts
2026-04-28 18:36 50.96450 7.94958 4719 ft 100 kts
2026-04-28 18:36 50.97135 7.94768 4739 ft 100 kts
2026-04-28 18:36 50.97822 7.94577 4775 ft 100 kts
2026-04-28 18:37 50.98508 7.94387 4812 ft 100 kts
2026-04-28 18:37 50.99196 7.94196 4841 ft 100 kts
2026-04-28 18:37 50.99884 7.94003 4856 ft 101 kts
2026-04-28 18:37 51.00573 7.93813 4900 ft 101 kts
2026-04-28 18:38 51.01029 7.93686 4893 ft 100 kts
2026-04-28 18:38 51.01578 7.93539 4871 ft 99 kts
2026-04-28 18:38 51.02275 7.93363 4772 ft 102 kts
2026-04-28 18:38 51.02977 7.93171 4713 ft 102 kts
2026-04-28 18:39 51.03688 7.93019 4620 ft 104 kts
2026-04-28 18:39 51.04392 7.92867 4574 ft 100 kts
2026-04-28 18:39 51.05056 7.92726 4571 ft 99 kts
2026-04-28 18:39 51.05744 7.92538 4575 ft 101 kts
2026-04-28 18:40 51.06441 7.92349 4568 ft 101 kts
2026-04-28 18:40 51.07132 7.92130 4597 ft 101 kts 358°
2026-04-28 18:40 51.07810 7.91834 4593 ft 102 kts 356°
2026-04-28 18:40 51.08492 7.91580 4638 ft 97 kts
2026-04-28 18:41 51.09167 7.91395 4614 ft 101 kts
2026-04-28 18:41 51.09847 7.91176 4645 ft 99 kts 359°
2026-04-28 18:41 51.10537 7.90934 4631 ft 101 kts 357°
2026-04-28 18:41 51.11206 7.90659 4656 ft 100 kts 358°
2026-04-28 18:42 51.11883 7.90457 4659 ft 94 kts
2026-04-28 18:42 51.12550 7.90405 4647 ft 98 kts
2026-04-28 18:42 51.13217 7.90281 4703 ft 98 kts
2026-04-28 18:42 51.13913 7.90144 4668 ft 101 kts
2026-04-28 18:43 51.14616 7.89900 4650 ft 107 kts 358°
2026-04-28 18:43 51.15314 7.89719 4738 ft 98 kts
2026-04-28 18:43 51.16015 7.89544 4756 ft 104 kts 359°
2026-04-28 18:43 51.16711 7.89268 4843 ft 104 kts 352°
2026-04-28 18:44 51.17425 7.89076 4847 ft 104 kts
2026-04-28 18:44 51.18015 7.87367 4775 ft 133 kts 211°
2026-04-28 18:44 51.17152 7.87017 4696 ft 132 kts 185°
2026-04-28 18:45 51.16253 7.86659 4542 ft 134 kts 187°
2026-04-28 18:45 51.15366 7.86319 4520 ft 129 kts 185°
2026-04-28 18:45 51.14487 7.86088 4471 ft 128 kts 179°
2026-04-28 18:45 51.13621 7.85949 4506 ft 121 kts 177°
2026-04-28 18:46 51.12769 7.85814 4501 ft 121 kts 180°
2026-04-28 18:46 51.11925 7.85531 4490 ft 123 kts 179°
2026-04-28 18:46 51.11091 7.85384 4602 ft 114 kts 179°
2026-04-28 18:46 51.10284 7.85217 4597 ft 119 kts 179°
2026-04-28 18:47 51.09455 7.85088 4586 ft 119 kts 176°
2026-04-28 18:47 51.08645 7.84966 4608 ft 120 kts 181°
2026-04-28 18:47 51.07804 7.84747 4580 ft 125 kts 182°
2026-04-28 18:47 51.06936 7.84537 4539 ft 124 kts 178°
2026-04-28 18:48 51.06079 7.84332 4510 ft 125 kts 182°
2026-04-28 18:48 51.05233 7.84063 4491 ft 125 kts 181°
2026-04-28 18:48 51.04372 7.83853 4516 ft 119 kts 173°
2026-04-28 18:48 51.03549 7.83781 4513 ft 121 kts 179°
2026-04-28 18:49 51.02713 7.83582 4498 ft 122 kts 182°
2026-04-28 18:49 51.02440 7.83495 4467 ft 124 kts 182°
2026-04-28 18:49 51.01043 7.83180 4494 ft 120 kts 177°
2026-04-28 18:49 51.00219 7.83063 4508 ft 121 kts 175°
2026-04-28 18:50 50.99362 7.82924 4450 ft 126 kts 181°
2026-04-28 18:50 50.98509 7.82678 4455 ft 123 kts 179°
2026-04-28 18:50 50.97680 7.82486 4461 ft 120 kts 179°
2026-04-28 18:50 50.96854 7.82311 4439 ft 121 kts 177°
2026-04-28 18:51 50.96001 7.82192 4371 ft 125 kts 177°
2026-04-28 18:51 50.95174 7.82024 4449 ft 117 kts 181°
2026-04-28 18:51 50.94370 7.81790 4397 ft 115 kts 178°
2026-04-28 18:51 50.93639 7.81814 4480 ft 97 kts 152°
2026-04-28 18:52 50.93075 7.82303 4484 ft 91 kts 131°
2026-04-28 18:52 50.92599 7.82969 4448 ft 93 kts 126°
2026-04-28 18:52 50.92092 7.83645 4458 ft 95 kts 134°
2026-04-28 18:52 50.91564 7.84258 4460 ft 94 kts 131°
2026-04-28 18:53 50.91067 7.84911 4500 ft 92 kts 130°
2026-04-28 18:53 50.90548 7.85586 4430 ft 99 kts 129°
2026-04-28 18:53 50.90037 7.86301 4425 ft 100 kts 129°
2026-04-28 18:53 50.89493 7.87019 4466 ft 97 kts 131°
2026-04-28 18:54 50.89015 7.87757 4425 ft 95 kts 123°
2026-04-28 18:54 50.88571 7.88482 4465 ft 89 kts 128°
2026-04-28 18:54 50.88120 7.89149 4504 ft 89 kts 124°
2026-04-28 18:54 50.87669 7.89850 4424 ft 97 kts 127°
2026-04-28 18:55 50.87159 7.90478 4484 ft 93 kts 133°
2026-04-28 18:55 50.86805 7.90882 4470 ft 95 kts 135°
2026-04-28 18:55 50.86119 7.91696 4512 ft 90 kts 129°
2026-04-28 18:55 50.85621 7.92331 4552 ft 93 kts 131°
2026-04-28 18:56 50.85111 7.92989 4493 ft 96 kts 129°
2026-04-28 18:56 50.84793 7.93484 4515 ft 94 kts 125°
2026-04-28 18:56 50.84223 7.94088 4575 ft 95 kts 141°
2026-04-28 18:56 50.83694 7.94693 4573 ft 90 kts 128°
2026-04-28 18:57 50.83189 7.95341 4573 ft 97 kts 134°
2026-04-28 18:57 50.82629 7.95983 4538 ft 97 kts 135°
2026-04-28 18:57 50.82100 7.96624 4516 ft 98 kts 131°
2026-04-28 18:57 50.81530 7.97278 4394 ft 107 kts 137°
2026-04-28 18:58 50.80934 7.98069 4166 ft 114 kts 130°
2026-04-28 18:58 50.80312 7.98915 3875 ft 120 kts 132°
2026-04-28 18:58 50.79657 7.99707 3799 ft 114 kts 131°
2026-04-28 18:58 50.79064 8.00419 3933 ft 99 kts 131°
2026-04-28 18:59 50.78432 8.01135 3637 ft 117 kts 134°
2026-04-28 18:59 50.77777 8.01884 3516 ft 119 kts 135°
2026-04-28 18:59 50.77088 8.02659 3282 ft 127 kts 138°
2026-04-28 18:59 50.76280 8.03234 3268 ft 122 kts 155°
2026-04-28 19:00 50.75472 8.03546 3067 ft 118 kts 154°
2026-04-28 19:00 50.74674 8.03765 2981 ft 114 kts 159°
2026-04-28 19:00 50.73869 8.03684 2984 ft 114 kts 178°
2026-04-28 19:00 50.73109 8.03401 2974 ft 113 kts 185°
2026-04-28 19:01 50.72346 8.02943 2872 ft 116 kts 195°
2026-04-28 19:01 50.71633 8.02466 2942 ft 108 kts 187°
2026-04-28 19:01 50.70910 8.02194 3027 ft 109 kts 182°
2026-04-28 19:01 50.70189 8.02227 3117 ft 99 kts 160°
2026-04-28 19:02 50.69560 8.02568 3181 ft 92 kts 129°
2026-04-28 19:02 50.69109 8.03306 3264 ft 91 kts 121°
2026-04-28 19:02 50.68625 8.04005 3313 ft 96 kts 128°
2026-04-28 19:02 50.68196 8.04738 3390 ft 94 kts 116°
2026-04-28 19:03 50.67863 8.05638 3376 ft 97 kts 111°
2026-04-28 19:03 50.67603 8.06611 3416 ft 98 kts 108°
2026-04-28 19:03 50.67282 8.07632 3312 ft 107 kts 109°
2026-04-28 19:03 50.67015 8.08729 3152 ft 105 kts 92°
2026-04-28 19:04 50.66991 8.09817 3125 ft 94 kts 91°
2026-04-28 19:04 50.66890 8.10850 3019 ft 99 kts 99°
2026-04-28 19:04 50.66575 8.11820 2958 ft 102 kts 115°
2026-04-28 19:04 50.66155 8.12724 2860 ft 99 kts 114°
2026-04-28 19:05 50.66243 8.13559 2924 ft 80 kts 51°
2026-04-28 19:05 50.66787 8.13846 2842 ft 105 kts
2026-04-28 19:05 50.67511 8.13582 2768 ft 110 kts 355°
2026-04-28 19:05 50.68148 8.12847 2720 ft 117 kts 326°
2026-04-28 19:06 50.68737 8.11923 2549 ft 116 kts 335°
2026-04-28 19:06 50.69106 8.11461 2516 ft 95 kts 332°
2026-04-28 19:06 50.69674 8.10428 2302 ft 92 kts 320°
2026-04-28 19:06 50.70050 8.09627 2258 ft 90 kts 323°
2026-04-28 19:07 50.70408 8.08896 2399 ft 80 kts 318°
2026-04-28 19:07 50.70737 8.08183 2524 ft 79 kts 328°
2026-04-28 19:07 50.71151 8.07610 2594 ft 81 kts 350°
2026-04-28 19:07 50.71640 8.07218 2724 ft 79 kts 345°
2026-04-28 19:08 50.72058 8.06683 2630 ft 97 kts 269°
2026-04-28 19:08 50.71678 8.06012 2733 ft 65 kts 143°
2026-04-28 19:08 50.71490 8.06606 2402 ft 59 kts 99°
2026-04-28 19:08 50.71271 8.07186 2114 ft 70 kts 110°
2026-04-28 19:09 50.70992 8.07822 1974 ft 66 kts 119°
2026-04-28 19:09 50.70761 8.08281 1948 ft 43 kts 118°
2026-04-28 19:09 50.70636 8.08570 1941 ft 26 kts 126°
2026-04-28 19:09 50.70528 8.08780 1943 ft 23 kts 131°
2026-04-28 19:10 50.70432 8.08930 1948 ft 15 kts 157°
2026-04-28 19:10 50.70337 8.08900 1939 ft 18 kts 221°
2026-04-28 19:10 50.70361 8.08724 1933 ft 17 kts 300°
2026-04-28 19:10 50.70432 8.08578 1937 ft 14 kts 297°
2026-04-28 19:11 50.70479 8.08466 1938 ft 11 kts 303°
2026-04-28 19:11 50.70515 8.08393 1942 ft 3 kts 332°
2026-04-28 19:11 50.70521 8.08385 1943 ft 7 kts 309°
2026-04-28 19:11 50.70591 8.08235 1955 ft 25 kts 307°
2026-04-28 19:12 50.70711 8.07990 1959 ft 29 kts 307°
2026-04-28 19:12 50.70800 8.07809 1974 ft 18 kts 312°
2026-04-28 19:12 50.70805 8.07697 1976 ft 2 kts 205°
2026-04-28 19:12 50.70798 8.07690 1976 ft 3 kts 218°
2026-04-28 19:13 50.70795 8.07686 1976 ft 0 kts 217°